| time (UTC) | temp F | wind direction | speed MPH | gust MPH | rain 1hr in | rain 24hr in | rain mn in | humidity % | barometer mb |
| 20260504211246 | 55 | 0 | 0.0 | 4.0 | 0.00 | 0.03 | 0.03 | 53 | 1018.3 |
| 20260504210745 | 55 | 0 | 2.0 | 6.0 | 0.00 | 0.03 | 0.03 | 53 | 1018.2 |
| 20260504210506 | 55 | 0 | 4.0 | 6.0 | 0.00 | 0.03 | 0.03 | 53 | 1018.2 |
| 20260504210016 | 55 | 0 | 2.0 | 4.0 | 0.00 | 0.03 | 0.03 | 53 | 1018.2 |
| 20260504205245 | 55 | 0 | 2.0 | 6.0 | 0.00 | 0.03 | 0.03 | 53 | 1018.2 |
| 20260504204745 | 55 | 0 | 1.0 | 6.0 | 0.00 | 0.03 | 0.03 | 53 | 1018.2 |
| 20260504204729 | 55 | 0 | 3.0 | 5.0 | 0.00 | 0.03 | 0.03 | 53 | 1018.3 |
| 20260504203745 | 55 | 0 | 2.0 | 7.0 | 0.00 | 0.03 | 0.03 | 53 | 1018.3 |
| 20260504203245 | 55 | 0 | 4.0 | 7.0 | 0.00 | 0.03 | 0.03 | 53 | 1018.3 |
| 20260504202744 | 55 | 0 | 4.0 | 5.0 | 0.00 | 0.03 | 0.03 | 53 | 1018.3 |
| 20260504202504 | 55 | 0 | 1.0 | 5.0 | 0.00 | 0.03 | 0.03 | 53 | 1018.4 |
| 20260504201745 | 55 | 0 | 1.0 | 6.0 | 0.00 | 0.03 | 0.03 | 53 | 1018.4 |
| 20260504201245 | 56 | 0 | 2.0 | 6.0 | 0.00 | 0.03 | 0.03 | 52 | 1018.4 |
| 20260504200744 | 56 | 0 | 4.0 | 7.0 | 0.00 | 0.03 | 0.03 | 52 | 1018.4 |
| 20260504200244 | 56 | 0 | 4.0 | 7.0 | 0.00 | 0.03 | 0.03 | 52 | 1018.4 |
| 20260504195744 | 56 | 0 | 3.0 | 7.0 | 0.00 | 0.03 | 0.03 | 52 | 1018.3 |
| 20260504195244 | 56 | 0 | 2.0 | 7.0 | 0.00 | 0.03 | 0.03 | 53 | 1018.3 |
| 20260504194743 | 56 | 0 | 4.0 | 9.0 | 0.00 | 0.03 | 0.03 | 52 | 1018.2 |
| 20260504194244 | 56 | 0 | 5.0 | 11.0 | 0.00 | 0.03 | 0.03 | 53 | 1018.2 |
| 20260504193743 | 56 | 0 | 5.0 | 11.0 | 0.00 | 0.03 | 0.03 | 53 | 1018.2 |
| 20260504193244 | 56 | 0 | 6.0 | 10.0 | 0.00 | 0.03 | 0.03 | 53 | 1018.2 |
| 20260504192743 | 56 | 0 | 4.0 | 7.0 | 0.00 | 0.03 | 0.03 | 53 | 1018.1 |
| 20260504192244 | 56 | 0 | 3.0 | 12.0 | 0.00 | 0.03 | 0.03 | 53 | 1018.2 |
| 20260504191743 | 56 | 0 | 8.0 | 12.0 | 0.00 | 0.03 | 0.03 | 54 | 1018.2 |
| 20260504191506 | 56 | 0 | 4.0 | 11.0 | 0.00 | 0.03 | 0.03 | 54 | 1018.1 |
| 20260504190743 | 55 | 0 | 7.0 | 12.0 | 0.00 | 0.03 | 0.03 | 54 | 1018.0 |
| 20260504190242 | 56 | 0 | 6.0 | 12.0 | 0.01 | 0.03 | 0.03 | 55 | 1018.0 |
| 20260504190006 | 56 | 0 | 4.0 | 10.0 | 0.01 | 0.02 | 0.03 | 55 | 1018.0 |
| 20260504185505 | 56 | 0 | 5.0 | 10.0 | 0.01 | 0.02 | 0.03 | 56 | 1018.0 |
| 20260504184742 | 56 | 0 | 2.0 | 6.0 | 0.01 | 0.02 | 0.03 | 56 | 1018.0 |
| 20260504184732 | 56 | 0 | 4.0 | 7.0 | 0.01 | 0.02 | 0.03 | 56 | 1018.1 |
| 20260504183742 | 56 | 0 | 5.0 | 12.0 | 0.02 | 0.02 | 0.03 | 56 | 1018.0 |
| 20260504183242 | 56 | 0 | 6.0 | 12.0 | 0.02 | 0.02 | 0.03 | 56 | 1018.1 |
| 20260504182742 | 56 | 0 | 4.0 | 10.0 | 0.02 | 0.02 | 0.03 | 56 | 1018.0 |
| 20260504182509 | 56 | 0 | 4.0 | 7.0 | 0.02 | 0.02 | 0.03 | 56 | 1018.0 |
| 20260504181742 | 56 | 0 | 5.0 | 7.0 | 0.02 | 0.02 | 0.03 | 56 | 1018.1 |
| 20260504181241 | 57 | 0 | 4.0 | 9.0 | 0.03 | 0.02 | 0.03 | 56 | 1018.1 |
| 20260504180741 | 57 | 0 | 5.0 | 9.0 | 0.03 | 0.02 | 0.02 | 56 | 1018.1 |
| 20260504180242 | 57 | 0 | 4.0 | 7.0 | 0.02 | 0.02 | 0.02 | 56 | 1018.1 |
| 20260504175741 | 57 | 0 | 1.0 | 5.0 | 0.02 | 0.00 | 0.02 | 56 | 1018.3 |
| 20260504175241 | 57 | 0 | 3.0 | 7.0 | 0.02 | 0.00 | 0.02 | 56 | 1018.2 |
| 20260504174741 | 58 | 0 | 3.0 | 9.0 | 0.02 | 0.00 | 0.02 | 56 | 1018.2 |
| 20260504174242 | 58 | 0 | 5.0 | 9.0 | 0.02 | 0.00 | 0.02 | 56 | 1018.1 |
| 20260504174004 | 58 | 0 | 4.0 | 9.0 | 0.02 | 0.00 | 0.02 | 56 | 1018.1 |
| 20260504173503 | 59 | 0 | 4.0 | 7.0 | 0.02 | 0.00 | 0.02 | 55 | 1018.2 |
| 20260504172743 | 59 | 0 | 4.0 | 7.0 | 0.02 | 0.00 | 0.02 | 55 | 1018.1 |
| 20260504172242 | 60 | 0 | 3.0 | 10.0 | 0.01 | 0.00 | 0.01 | 55 | 1018.1 |
| 20260504172234 | 60 | 0 | 6.0 | 10.0 | 0.01 | 0.00 | 0.01 | 53 | 1017.9 |
| 20260504171242 | 61 | 0 | 6.0 | 10.0 | 0.00 | 0.00 | 0.00 | 53 | 1017.9 |
| 20260504170742 | 62 | 0 | 5.0 | 7.0 | 0.00 | 0.00 | 0.00 | 51 | 1017.9 |
| 20260504170242 | 62 | 0 | 3.0 | 4.0 | 0.00 | 0.00 | 0.00 | 50 | 1017.9 |
| 20260504160239 | 64 | 0 | 1.0 | 6.0 | 0.00 | 0.00 | 0.00 | 46 | 1017.5 |
| 20260504150738 | 66 | 0 | 3.0 | 5.0 | 0.00 | 0.00 | 0.00 | 41 | 1017.6 |
| 20260504150504 | 66 | 0 | 1.0 | 5.0 | 0.00 | 0.00 | 0.00 | 41 | 1017.7 |
| 20260504141236 | 66 | 0 | 5.0 | 7.0 | 0.00 | 0.00 | 0.00 | 43 | 1018.0 |
| 20260504140736 | 67 | 0 | 3.0 | 6.0 | 0.00 | 0.00 | 0.00 | 43 | 1018.1 |
| 20260504140236 | 66 | 0 | 1.0 | 6.0 | 0.00 | 0.00 | 0.00 | 43 | 1018.1 |
| 20260504130430 | 63 | 0 | 1.0 | 5.0 | 0.00 | 0.00 | 0.00 | 50 | 1018.7 |
| 20260504110704 | 61 | 0 | 2.0 | 5.0 | 0.00 | 0.00 | 0.00 | 48 | 1019.4 |
| 20260504110204 | 61 | 0 | 4.0 | 5.0 | 0.00 | 0.00 | 0.00 | 47 | 1019.4 |
| 20260504100204 | 61 | 0 | 4.0 | 6.0 | 0.00 | 0.00 | 0.00 | 44 | 1019.4 |
| 20260504081705 | 60 | 0 | 3.0 | 5.0 | 0.00 | 0.00 | 0.00 | 43 | 1019.4 |
| 20260504081205 | 60 | 0 | 4.0 | 6.0 | 0.00 | 0.00 | 0.00 | 42 | 1019.1 |
| 20260504080705 | 60 | 0 | 4.0 | 7.0 | 0.00 | 0.00 | 0.00 | 42 | 1019.0 |
| 20260504080204 | 60 | 0 | 3.0 | 7.0 | 0.00 | 0.00 | 0.00 | 42 | 1018.9 |
| 20260504070204 | 59 | 0 | 4.0 | 5.0 | 0.00 | 0.00 | 0.00 | 51 | 1018.5 |
| 20260504060205 | 56 | 0 | 0.0 | 0.0 | 0.00 | 0.00 | 0.00 | 54 | 1018.3 |
| 20260504050431 | 59 | 0 | 1.0 | 4.0 | 0.00 | 0.00 | 0.00 | 46 | 1017.6 |
| 20260504045705 | 59 | 0 | 3.0 | 4.0 | 0.00 | 0.00 | 0.00 | 45 | 1017.6 |
| 20260504045204 | 59 | 0 | 3.0 | 5.0 | 0.00 | 0.00 | 0.00 | 45 | 1017.5 |
| 20260504044705 | 59 | 0 | 3.0 | 6.0 | 0.00 | 0.00 | 0.00 | 45 | 1017.5 |
| 20260504044205 | 59 | 0 | 4.0 | 6.0 | 0.00 | 0.00 | 0.00 | 46 | 1017.5 |
| 20260504043704 | 59 | 0 | 3.0 | 5.0 | 0.00 | 0.00 | 0.00 | 47 | 1017.5 |
| 20260504043204 | 59 | 0 | 4.0 | 5.0 | 0.00 | 0.00 | 0.00 | 47 | 1017.4 |
| 20260504042704 | 58 | 0 | 3.0 | 5.0 | 0.00 | 0.00 | 0.00 | 47 | 1017.4 |
| 20260504042204 | 58 | 0 | 3.0 | 5.0 | 0.00 | 0.00 | 0.00 | 47 | 1017.4 |
| 20260504041704 | 58 | 0 | 4.0 | 5.0 | 0.00 | 0.00 | 0.00 | 48 | 1017.3 |
| 20260504041205 | 58 | 0 | 3.0 | 4.0 | 0.00 | 0.00 | 0.00 | 48 | 1017.3 |
| 20260504040929 | 58 | 0 | 3.0 | 3.0 | 0.00 | 0.00 | 0.00 | 49 | 1017.4 |
| 20260504040205 | 58 | 0 | 2.0 | 3.0 | 0.00 | 0.00 | 0.00 | 51 | 1017.4 |
| 20260504035704 | 58 | 0 | 2.0 | 3.0 | 0.00 | 0.00 | 0.00 | 51 | 1017.3 |
| 20260504035204 | 57 | 0 | 0.0 | 0.0 | 0.00 | 0.00 | 0.00 | 52 | 1017.2 |
| 20260504034704 | 57 | 0 | 0.0 | 0.0 | 0.00 | 0.00 | 0.00 | 53 | 1017.3 |
| 20260504034204 | 57 | 0 | 0.0 | 0.0 | 0.00 | 0.00 | 0.00 | 54 | 1017.4 |
| 20260504033705 | 57 | 0 | 0.0 | 0.0 | 0.00 | 0.00 | 0.00 | 54 | 1017.4 |
| 20260504033204 | 58 | 0 | 0.0 | 1.0 | 0.00 | 0.00 | 0.00 | 54 | 1017.4 |
| 20260504032704 | 58 | 0 | 0.0 | 3.0 | 0.00 | 0.00 | 0.00 | 53 | 1017.5 |
| 20260504032205 | 58 | 0 | 1.0 | 3.0 | 0.00 | 0.00 | 0.00 | 51 | 1017.6 |
| 20260504031704 | 58 | 0 | 0.0 | 4.0 | 0.00 | 0.00 | 0.00 | 50 | 1017.5 |
| 20260504031204 | 58 | 0 | 2.0 | 4.0 | 0.00 | 0.00 | 0.00 | 50 | 1017.4 |
| 20260504030704 | 58 | 0 | 3.0 | 4.0 | 0.00 | 0.00 | 0.00 | 51 | 1017.3 |
| 20260504030204 | 58 | 0 | 2.0 | 4.0 | 0.00 | 0.00 | 0.00 | 53 | 1017.3 |
| 20260504025923 | 58 | 0 | 3.0 | 4.0 | 0.00 | 0.00 | 0.00 | 52 | 1017.4 |
| 20260504025205 | 58 | 0 | 2.0 | 2.0 | 0.00 | 0.00 | 0.00 | 52 | 1017.5 |
| 20260504024706 | 58 | 0 | 2.0 | 3.0 | 0.00 | 0.00 | 0.00 | 52 | 1017.6 |
| 20260504024205 | 59 | 0 | 2.0 | 3.0 | 0.00 | 0.00 | 0.00 | 51 | 1017.5 |
| 20260504023712 | 59 | 0 | 0.0 | 3.0 | 0.00 | 0.00 | 0.00 | 49 | 1017.6 |
| 20260504023706 | 59 | 0 | 2.0 | 3.0 | 0.00 | 0.00 | 0.00 | 49 | 1017.7 |
| 20260504022705 | 59 | 0 | 1.0 | 4.0 | 0.00 | 0.00 | 0.00 | 49 | 1017.7 |
| 20260504022205 | 59 | 0 | 2.0 | 4.0 | 0.00 | 0.00 | 0.00 | 49 | 1017.7 |
| 20260504022143 | 59 | 0 | 2.0 | 5.0 | 0.00 | 0.00 | 0.00 | 49 | 1017.6 |
| 20260504021651 | 59 | 0 | 4.0 | 5.0 | 0.00 | 0.00 | 0.00 | 49 | 1017.5 |
| 20260504020707 | 59 | 0 | 3.0 | 6.0 | 0.00 | 0.00 | 0.00 | 50 | 1017.5 |
| 20260504020430 | 59 | 0 | 4.0 | 6.0 | 0.00 | 0.00 | 0.00 | 51 | 1017.5 |
| 20260504015705 | 58 | 0 | 5.0 | 6.0 | 0.00 | 0.00 | 0.00 | 53 | 1017.5 |
| 20260504015206 | 58 | 0 | 1.0 | 4.0 | 0.00 | 0.00 | 0.00 | 53 | 1017.4 |
| 20260504014706 | 58 | 0 | 0.0 | 0.0 | 0.00 | 0.00 | 0.00 | 53 | 1017.5 |
| 20260504014206 | 58 | 0 | 0.0 | 0.0 | 0.00 | 0.00 | 0.00 | 54 | 1017.6 |
| 20260504013706 | 58 | 0 | 0.0 | 0.0 | 0.00 | 0.00 | 0.00 | 54 | 1017.6 |
| 20260504013205 | 58 | 0 | 0.0 | 0.0 | 0.00 | 0.00 | 0.00 | 54 | 1017.7 |
| 20260504012706 | 58 | 0 | 0.0 | 0.0 | 0.00 | 0.00 | 0.00 | 53 | 1017.7 |
| 20260504012206 | 58 | 0 | 0.0 | 0.0 | 0.00 | 0.00 | 0.00 | 53 | 1017.6 |
| 20260504011927 | 58 | 0 | 0.0 | 0.0 | 0.00 | 0.00 | 0.00 | 53 | 1017.7 |
| 20260504011207 | 59 | 0 | 0.0 | 0.0 | 0.00 | 0.00 | 0.00 | 53 | 1017.7 |
| 20260504010705 | 59 | 0 | 0.0 | 0.0 | 0.00 | 0.00 | 0.00 | 52 | 1017.6 |
| 20260504010206 | 59 | 0 | 0.0 | 0.0 | 0.00 | 0.00 | 0.00 | 50 | 1017.6 |
| 20260504005706 | 59 | 0 | 0.0 | 0.0 | 0.00 | 0.00 | 0.00 | 50 | 1017.6 |
| 20260504005206 | 59 | 0 | 0.0 | 0.0 | 0.00 | 0.00 | 0.00 | 50 | 1017.5 |
| 20260504004706 | 59 | 0 | 0.0 | 0.0 | 0.00 | 0.00 | 0.00 | 49 | 1017.6 |
| 20260504004205 | 59 | 0 | 0.0 | 0.0 | 0.00 | 0.00 | 0.00 | 49 | 1017.7 |
| 20260504003706 | 59 | 0 | 0.0 | 0.0 | 0.00 | 0.00 | 0.00 | 49 | 1017.8 |
| 20260504003206 | 59 | 0 | 0.0 | 1.0 | 0.00 | 0.00 | 0.00 | 50 | 1017.8 |
| 20260504002706 | 60 | 0 | 0.0 | 3.0 | 0.00 | 0.00 | 0.00 | 50 | 1018.0 |
| 20260504002206 | 60 | 0 | 0.0 | 3.0 | 0.00 | 0.00 | 0.00 | 49 | 1018.1 |
| 20260504001706 | 60 | 0 | 1.0 | 2.0 | 0.00 | 0.00 | 0.00 | 49 | 1018.1 |
| 20260504001205 | 61 | 0 | 0.0 | 0.0 | 0.00 | 0.00 | 0.00 | 49 | 1018.1 |
| 20260504000706 | 61 | 0 | 0.0 | 2.0 | 0.00 | 0.00 | 0.00 | 48 | 1018.1 |
| 20260504000206 | 62 | 0 | 0.0 | 3.0 | 0.00 | 0.00 | 0.00 | 46 | 1018.2 |
| 20260503235706 | 62 | 0 | 2.0 | 3.0 | 0.00 | 0.00 | 0.00 | 45 | 1018.1 |
| 20260503235206 | 62 | 0 | 0.0 | 0.0 | 0.00 | 0.00 | 0.00 | 45 | 1018.2 |
| 20260503234706 | 62 | 0 | 0.0 | 1.0 | 0.00 | 0.00 | 0.00 | 45 | 1018.1 |
| 20260503234206 | 62 | 0 | 0.0 | 3.0 | 0.00 | 0.00 | 0.00 | 45 | 1018.0 |
| 20260503233706 | 62 | 0 | 2.0 | 4.0 | 0.00 | 0.00 | 0.00 | 45 | 1018.0 |
| 20260503233430 | 62 | 0 | 2.0 | 5.0 | 0.00 | 0.00 | 0.00 | 45 | 1017.9 |
| 20260503232926 | 62 | 0 | 4.0 | 6.0 | 0.00 | 0.00 | 0.00 | 46 | 1017.8 |
| 20260503232206 | 62 | 0 | 4.0 | 6.0 | 0.00 | 0.00 | 0.00 | 46 | 1018.0 |
| 20260503231706 | 62 | 0 | 3.0 | 4.0 | 0.00 | 0.00 | 0.00 | 46 | 1018.1 |
| 20260503231206 | 62 | 0 | 0.0 | 0.0 | 0.00 | 0.00 | 0.00 | 46 | 1018.3 |
| 20260503230705 | 62 | 0 | 0.0 | 2.0 | 0.00 | 0.00 | 0.00 | 46 | 1018.4 |
| 20260503230206 | 62 | 0 | 1.0 | 4.0 | 0.00 | 0.00 | 0.00 | 46 | 1018.3 |
| 20260503225706 | 62 | 0 | 2.0 | 4.0 | 0.00 | 0.00 | 0.00 | 46 | 1018.2 |
| 20260503225206 | 62 | 0 | 0.0 | 0.0 | 0.00 | 0.00 | 0.00 | 47 | 1018.4 |
| 20260503224705 | 62 | 0 | 0.0 | 0.0 | 0.00 | 0.00 | 0.00 | 47 | 1018.4 |
| 20260503224205 | 62 | 0 | 0.0 | 0.0 | 0.00 | 0.00 | 0.00 | 47 | 1018.4 |
| 20260503223706 | 62 | 0 | 0.0 | 0.0 | 0.00 | 0.00 | 0.00 | 47 | 1018.6 |
| 20260503223206 | 62 | 0 | 0.0 | 0.0 | 0.00 | 0.00 | 0.00 | 46 | 1018.5 |
| 20260503222929 | 62 | 0 | 0.0 | 0.0 | 0.00 | 0.00 | 0.00 | 46 | 1018.5 |
| 20260503222206 | 62 | 0 | 0.0 | 0.0 | 0.00 | 0.00 | 0.00 | 47 | 1018.5 |
| 20260503221706 | 62 | 0 | 0.0 | 0.0 | 0.00 | 0.00 | 0.00 | 47 | 1018.5 |
| 20260503221206 | 62 | 0 | 0.0 | 0.0 | 0.00 | 0.00 | 0.00 | 46 | 1018.5 |
| 20260503220706 | 62 | 0 | 0.0 | 0.0 | 0.00 | 0.00 | 0.00 | 47 | 1018.5 |
| 20260503220205 | 62 | 0 | 0.0 | 0.0 | 0.00 | 0.00 | 0.00 | 47 | 1018.5 |
| 20260503215705 | 62 | 0 | 0.0 | 0.0 | 0.00 | 0.00 | 0.00 | 49 | 1018.5 |
| 20260503215430 | 62 | 0 | 0.0 | 0.0 | 0.00 | 0.00 | 0.00 | 49 | 1018.5 |
| 20260503214705 | 62 | 0 | 0.0 | 0.0 | 0.00 | 0.00 | 0.00 | 49 | 1018.4 |
| 20260503214206 | 62 | 0 | 0.0 | 0.0 | 0.00 | 0.00 | 0.00 | 49 | 1018.3 |
| 20260503213706 | 62 | 0 | 0.0 | 0.0 | 0.00 | 0.00 | 0.00 | 49 | 1018.3 |
| 20260503213205 | 62 | 0 | 0.0 | 0.0 | 0.00 | 0.00 | 0.00 | 47 | 1018.4 |
| 20260503212706 | 62 | 0 | 0.0 | 0.0 | 0.00 | 0.00 | 0.00 | 47 | 1018.3 |
| 20260503212206 | 62 | 0 | 0.0 | 0.0 | 0.00 | 0.00 | 0.00 | 47 | 1018.3 |